Back to catalog

DELTA 1 DEB

AliveSSO
NORAD 7060·DEBRIS·🇺🇸 United States

Launched Nov 6, 1973 from Vandenberg Space Force Base

Loading…

Next Passes (next 24 hours)

TLE

FreshSource: Space-Track

Epoch: Sep 14, 2026, 00:26 UTC

1 07060U 73086BC  26257.01827765 -.00000010  00000-0  25396-3 0  9995
2 07060 102.1390 281.1912 0022990 301.3252  85.7321 12.44947988400357

Track DELTA 1 DEB in real time with AllMySat

Download on the App Store